Probability
0 0 0 0 0 0 0 0 0 0 0 0 0 0 1 2 3 2 1 0 0 0 0 0 0 0 0 0 0 0 0 0 0 0 0 0 0 0 0 0 0 0 0
0 0 0 0 0 0 0 0 0 0 0 0 0 0 0 1 2 1 0 0 0 0 0 0 0 0 0 0 0 0 0 0 0 0 0 0 0 0 0 0 0 0 0
0 0 0 0 0 0 0 0 0 0 0 0 0 0 0 0 0 0 0 0 0 0 0 0 0 0 0 0 0 0 0 0 0 0 0 0 0 0 0 0 0 0 0
0 0 0 0 0 0 0 0 0 0 0 0 0 0 0 0 0 0 0 0 0 0 0 0 0 0 0 0 0 0 0 0 0 0 0 0 0 0 0 0 0 0 0
0 1 1 1 0 0 0 0 0 0 0 0 0 0 0 0 0 0 0 0 0 0 0 0 0 0 0 0 0 0 0 0 0 0 0 0 0 0 0 0 0 0 0
0 1 2 1 0 0 0 0 0 0 0 0 0 0 0 0 0 0 0 0 0 0 0 0 0 0 0 0 0 0 0 0 0 0 0 0 0 0 0 0 0 0 0
0 1 1 1 0 0 0 0 0 0 0 0 0 0 0 0 0 0 0 0 0 0 0 0 0 0 0 0 0 0 0 0 0 0 0 0 0 0 0 0 0 0 0
0 0 0 0 0 0 0 0 0 0 0 0 0 0 0 0 0 0 0 0 0 0 0 0 0 0 0 0 0 0 0 0 0 0 0 0 0 0 0 0 0 0 0
0 0 0 0 0 0 0 0 0 0 0 0 0 0 0 0 0 0 0 0 0 0 0 0 0 0 0 0 0 0 0 0 0 0 0 0 0 0 0 0 0 0 0
0 0 0 0 0 0 0 0 0 0 0 0 0 0 0 0 0 0 0 0 0 0 0 0 0 0 0 0 0 0 0 0 0 0 0 0 0 0 0 0 0 0 0
1 1 0 0 0 0 0 0 0 1 0 0 0 0 0 0 0 0 0 0 0 0 0 0 0 0 0 0 0 0 0 0 0 0 0 0 0 0 0 0 0 0 0
2 2 1 0 0 0 0 0 0 0 0 0 0 0 0 0 0 0 0 0 0 0 0 0 0 0 0 0 0 0 0 0 0 0 0 0 0 0 0 0 0 0 0
3 3 2 0 0 0 0 0 0 0 0 0 0 0 0 0 0 0 0 0 0 0 0 0 0 0 0 0 0 0 0 0 0 0 0 0 0 0 0 0 0 0 0
4 3 2 0 0 0 0 0 0 0 0 0 0 0 0 0 0 0 0 0 0 0 0 0 0 0 0 0 0 0 0 0 0 0 0 0 0 0 0 0 0 0 0
4 3 1 0 0 0 1 1 0 0 0 0 0 0 1 2 1 1 0 1 1 1 0 0 0 0 0 0 0 0 0 0 0 0 0 0 0 0 0 0 0 0 0
3 2 1 0 0 0 1 1 0 0 0 0 0 0 2 3 3 2 2 2 2 2 1 1 0 0 0 0 0 0 0 0 0 0 0 0 0 0 0 0 0 0 0
2 1 0 0 1 1 1 1 0 0 0 0 0 0 1 2 3 3 3 3 3 2 2 2 1 0 0 0 0 0 0 0 0 0 0 0 0 0 0 1 1 0 0
2 2 2 2 3 3 2 1 0 0 0 0 1 1 1 1 2 4 4 4 3 2 2 2 1 1 1 1 1 1 0 0 0 0 0 0 0 0 1 2 2 1 0
5 7 8 8 7 6 4 3 2 1 2 2 3 3 2 1 2 4 5 4 3 3 3 2 1 2 2 2 2 2 1 0 0 0 0 0 0 0 1 2 3 2 1
10 12 14 14 15 13 10 9 8 6 5 5 6 5 4 3 3 4 6 5 4 5 4 2 1 2 3 3 3 3 2 1 0 0 0 0 0 0 0 2 3 3 2
14 16 17 19 21 20 17 16 16 14 11 9 8 6 5 4 4 5 7 6 5 6 5 3 3 3 4 5 6 5 2 1 0 0 0 1 1 1 1 3 4 5 5
15 16 18 21 24 24 23 21 20 18 14 11 10 8 6 5 4 6 8 8 7 8 7 6 6 6 6 8 10 8 4 1 1 0 0 1 2 2 2 3 4 5 6
12 14 17 20 24 26 23 21 21 19 15 13 13 11 7 6 6 8 9 10 10 11 10 9 7 7 8 9 11 10 6 2 1 1 0 1 1 1 2 1 1 4 6
7 11 16 20 25 25 22 21 21 19 14 13 15 11 8 8 9 10 10 11 12 13 12 9 6 6 7 8 9 10 7 3 3 2 1 1 1 1 1 1 1 4 7
6 9 16 22 27 28 26 24 23 19 14 13 14 12 9 9 11 12 12 12 13 13 11 9 6 4 4 6 8 9 8 6 4 3 2 3 3 3 3 3 3 5 8
6 10 17 24 29 33 32 28 25 21 15 15 16 13 9 9 12 13 14 14 13 12 12 10 6 3 3 5 7 8 8 7 4 2 2 3 5 6 6 5 5 5 6
Wind_Speed
8 11 10 10 11 12 12 13 14 14 14 14 14 14 14 14 13 13 13 14 14 14 14 15 15 15 15 15 15 15 15 15 15 15 15 15 15 15 14 13 13 14 15
10 12 11 10 11 11 12 12 13 13 14 14 13 13 13 13 13 13 13 14 14 14 14 14 15 15 15 15 15 15 15 15 15 15 15 15 14 14 12 10 10 13 14
11 12 11 10 11 11 11 12 12 12 13 13 13 13 13 13 13 13 13 13 13 14 14 14 15 15 14 15 14 14 14 13 13 12 11 12 13 13 12 13 15 14 14
11 11 11 11 10 11 11 11 11 12 12 12 12 12 12 12 12 12 12 13 13 13 13 13 14 14 14 13 14 13 13 12 10 8 7 10 11 13 12 13 13 13 13
10 10 12 9 10 10 10 10 11 11 11 11 11 11 11 11 12 11 12 12 12 12 13 13 13 13 13 12 12 12 12 10 7 5 9 9 10 12 12 12 12 12 12
10 11 13 8 9 9 9 10 10 10 10 11 11 11 10 11 11 11 11 11 11 11 12 12 12 12 11 11 11 11 10 7 6 7 8 8 10 11 11 11 11 11 11
10 10 13 9 9 9 9 9 10 10 10 10 10 10 10 10 10 10 11 11 10 10 11 11 11 11 10 10 10 9 7 2 3 7 7 8 10 11 10 10 10 10 10
9 10 12 10 9 8 8 8 9 9 9 9 9 9 9 9 9 9 9 9 9 10 10 10 10 10 9 9 8 7 5 3 5 7 6 8 11 9 10 10 9 9 9
8 9 9 11 10 9 7 7 8 8 8 8 9 9 8 8 8 8 8 8 8 8 8 9 9 9 8 8 7 6 3 3 1 5 6 7 10 9 9 9 8 8 8
8 8 7 7 7 8 9 8 7 7 7 7 7 7 7 8 8 7 7 7 7 7 7 7 7 7 7 7 6 5 4 6 3 5 5 8 10 8 8 8 8 8 8
6 6 6 6 6 5 6 8 7 7 6 7 7 6 5 4 6 7 9 7 6 6 6 6 6 6 6 7 6 5 6 3 3 3 4 11 9 8 8 8 8 8 8
8 7 5 4 5 4 4 5 3 4 5 3 3 3 3 3 2 4 9 5 5 5 5 5 5 7 7 6 8 8 3 3 2 3 6 10 8 8 7 7 8 8 8
7 6 6 5 4 3 3 3 2 2 3 4 4 2 2 2 2 2 3 5 5 5 4 6 7 4 3 1 1 2 1 1 1 2 7 9 7 7 8 8 8 8 8
7 6 5 5 4 2 1 2 2 2 2 2 3 2 2 1 1 1 1 2 2 2 1 1 2 2 1 1 2 2 2 2 1 1 5 9 7 7 8 8 9 9 8
6 6 6 5 4 4 2 2 2 1 1 2 1 1 1 2 1 1 0 1 1 1 2 2 1 2 2 3 3 3 3 2 2 2 4 8 8 8 9 10 10 10 10
7 7 6 6 5 4 4 2 2 2 1 1 1 1 2 2 1 2 2 2 2 2 1 1 2 2 3 2 3 3 4 3 3 3 3 7 10 9 10 10 10 11 11
8 7 7 7 6 5 5 4 3 2 2 2 1 2 3 3 2 3 3 3 2 2 2 3 3 3 4 4 4 4 4 4 4 4 4 4 6 11 12 11 11 11 12
7 7 7 6 6 6 5 3 3 3 2 2 2 2 3 3 3 4 3 3 3 3 3 3 4 4 3 4 3 4 4 4 6 6 5 5 5 5 11 14 12 12 13
7 7 7 6 5 6 5 4 4 3 3 3 3 3 3 3 4 4 3 3 4 3 3 5 3 3 4 4 4 5 5 5 5 6 6 7 6 6 5 10 14 13 14
8 8 7 7 6 6 5 4 4 4 4 3 3 3 4 4 4 4 4 3 4 3 4 4 4 4 4 4 6 4 5 5 6 6 7 7 6 7 7 6 7 10 14
8 8 8 8 7 6 4 4 4 4 3 3 3 3 4 5 4 4 4 3 4 4 4 5 5 6 5 4 5 5 6 8 7 6 6 6 6 6 6 5 5 5 6
9 9 9 9 8 7 5 4 3 3 3 3 2 2 4 4 4 4 4 4 4 4 5 5 5 4 4 3 3 4 4 5 5 6 5 5 5 4 5 5 5 4 5
10 10 8 8 7 7 6 4 3 3 3 3 3 2 3 4 4 4 4 4 4 5 4 5 5 5 5 3 4 4 4 3 2 3 4 3 3 3 4 3 4 4 5
10 9 9 8 7 7 7 6 6 4 4 3 2 2 3 4 4 4 4 5 5 5 5 6 5 5 6 5 4 5 6 4 4 3 3 2 2 2 3 3 3 3 3
9 9 8 8 7 7 7 6 6 5 4 3 2 2 3 3 4 4 4 4 4 4 5 5 4 5 4 5 4 3 4 5 6 5 3 2 2 2 2 2 3 2 2
8 8 8 7 7 7 7 6 6 5 4 3 3 2 3 2 2 3 4 3 4 4 4 4 4 4 4 4 4 3 4 4 4 4 4 4 2 1 1 1 2 2 2
Wind_Direction
104 98 94 90 89 88 88 88 88 91 93 93 94 95 95 95 94 93 95 98 95 95 95 95 97 98 99 100 101 101 102 104 104 104 104 105 107 108 110 119 123 108 108
109 104 98 93 92 90 90 90 91 91 93 93 95 94 94 94 94 94 95 97 96 95 96 97 97 98 99 100 100 101 103 104 106 108 111 109 106 107 107 101 89 104 114
114 111 111 95 95 93 92 92 92 92 93 93 94 94 93 94 95 96 97 97 97 97 98 98 99 100 100 101 102 102 102 105 110 119 132 117 110 108 107 101 101 111 113
113 111 102 101 98 96 95 95 95 95 94 94 94 94 94 94 95 94 95 98 99 98 98 99 100 101 102 104 104 103 104 106 117 150 129 110 112 109 111 110 112 114 114
108 107 103 105 101 98 96 95 96 95 95 95 94 94 93 94 95 94 95 97 98 98 98 100 102 103 104 105 106 106 108 113 138 149 100 104 105 113 115 115 116 116 117
122 116 107 106 101 98 97 96 97 97 96 95 94 93 93 92 94 96 94 95 97 99 99 101 104 105 106 108 110 111 114 138 175 111 111 115 112 120 121 120 120 120 120
120 115 112 107 104 101 97 96 97 97 96 94 93 93 92 92 94 95 95 96 98 100 101 103 106 109 108 108 111 113 116 166 123 103 110 106 107 123 125 124 124 124 124
124 117 116 115 106 104 102 99 99 97 97 98 97 97 96 95 95 96 97 99 100 103 104 107 110 111 111 110 114 119 135 231 128 110 109 103 109 130 130 129 130 131 131
125 123 129 133 129 122 107 102 101 101 100 100 99 100 101 100 100 102 101 100 101 104 106 110 114 113 114 114 117 121 137 281 157 118 119 113 124 136 138 139 141 141 140
133 127 130 126 127 139 132 117 109 107 106 105 102 105 116 123 123 124 127 108 105 106 109 114 119 119 120 121 126 135 178 235 158 127 122 117 134 146 148 151 152 151 149
140 136 137 132 132 132 126 129 141 136 133 145 134 136 172 151 133 143 97 108 113 113 116 121 128 134 144 145 146 170 211 212 124 111 108 116 145 157 161 161 163 161 160
158 155 143 140 130 138 123 132 144 144 137 142 112 131 129 95 86 96 112 122 126 132 140 141 151 179 207 167 164 195 205 172 140 133 116 132 157 171 172 172 174 176 175
163 163 155 150 153 160 139 149 130 125 134 146 130 142 113 135 145 144 144 152 160 176 173 158 188 197 180 144 176 183 175 188 153 142 124 147 172 184 185 185 186 188 189
169 170 166 157 160 163 168 153 171 164 156 149 142 198 150 150 166 131 178 155 166 162 163 195 185 170 202 192 210 212 202 218 168 130 128 158 184 195 195 196 197 197 198
174 182 174 174 169 180 186 231 183 182 186 153 157 168 228 203 204 179 246 279 243 178 180 205 229 189 208 206 212 210 227 223 213 210 146 167 191 203 204 205 207 206 205
183 187 183 188 181 190 193 207 228 221 202 255 214 207 245 246 233 230 224 244 252 244 252 246 227 225 228 226 227 224 235 226 210 227 210 175 191 204 210 213 214 214 213
186 190 192 195 188 196 207 214 218 231 224 240 264 253 259 257 244 247 247 240 247 242 230 239 247 244 234 227 224 229 233 237 234 229 237 226 196 197 206 214 219 219 219
188 187 196 203 190 197 210 228 242 251 252 251 252 254 259 271 258 259 255 251 253 253 248 241 246 252 249 246 237 238 238 227 232 231 230 227 232 216 198 207 219 222 223
194 193 195 203 204 212 210 217 241 251 260 266 263 266 266 265 263 261 267 263 255 249 250 257 232 253 256 259 250 233 239 237 235 234 236 236 230 232 227 191 205 219 226
197 197 200 200 206 214 216 213 233 248 253 256 265 264 266 263 262 268 262 260 261 256 249 251 258 249 259 263 269 266 252 243 237 232 236 234 231 230 232 227 211 211 217
199 199 201 207 201 205 213 218 221 230 246 253 253 256 261 266 261 259 276 270 265 262 263 254 251 246 245 251 262 259 245 236 234 236 237 243 237 234 237 235 240 240 207
199 201 204 208 205 207 210 223 229 243 246 243 265 274 271 268 266 254 258 268 263 260 260 260 251 262 253 232 250 264 256 231 219 226 223 226 243 242 238 233 232 235 254
201 202 203 205 206 208 209 209 209 213 237 236 241 253 266 270 268 275 274 271 275 269 263 262 255 254 259 250 236 253 268 259 249 210 213 226 233 249 257 250 239 241 242
197 196 198 198 202 202 203 214 219 230 239 244 250 260 259 258 266 263 263 266 266 269 272 264 252 255 254 254 236 240 261 292 280 254 213 205 218 245 270 276 261 239 241
191 189 187 190 195 197 204 208 220 233 240 244 242 252 263 260 265 268 269 270 269 271 275 278 277 260 255 257 254 248 248 249 249 262 265 265 241 243 248 266 283 284 272
183 182 181 180 188 192 198 208 219 229 237 253 254 263 259 260 267 276 275 276 274 275 272 266 266 257 262 263 262 255 251 252 251 248 256 262 264 267 272 294 287 280 279